User: anonymous   Login
Location: ??
(35.5052°N, 139.7262°E)
Time: 03:52:34
(UTC+00:00)
Language:

Cosmos 1816 Rocket - Orbit

View from above orbital plane
View from above orbital plane
View from above satellite
View from above satellite

Ground track
Ground track

The orbit data is extracted from the following two-line orbital elements,

1 17360U 87009B   21291.45533061  .00000092  00000-0  77065-4 0  9993
2 17360  82.9206 167.0113 0033790  81.7355  91.2775 13.76762314743988
Epoch (UTC): 18 October 2021 10:55:40
Eccentricity: 0.0033790
inclination: 82.9206°
perigee height: 950 km
apogee height: 1000 km
right ascension of ascending node: 167.0113°
argument of perigee: 81.7355°
revolutions per day: 13.76762314
mean anomaly at epoch: 91.2775°
orbit number at epoch: 74398

The dashed part of the orbit path shows where the satellite is in the earth's shadow,  

DLR